Tracking 19638 objects as of 19-May-2019
HD Live streaming from Space Station
objects crossing your sky now

COSMOS 1299

Track COSMOS 1299 now!
10-day predictions
COSMOS 1299 is classified as:


NORAD ID: 12783
Int'l Code: 1981-081A
Perigee: 924.3 km
Apogee: 979.7 km
Inclination: 65.1 °
Period: 103.9 minutes
Semi major axis: 7323 km
RCS: 2.89 m2 (large)
Launch date: August 24, 1981
Source: Commonwealth of Independent States (former USSR) (CIS)
Launch site: TYURATAM MISSILE AND SPACE COMPLEX (TTMTR)
aabbcc
Your satellite tracking list
Your tracking list is empty




NASA's NSSDC Master Catalog

Two Line Element Set (TLE):
1 12783U 81081A   19138.84347005 -.00000096  00000-0 -70441-5 0  9990
2 12783  65.1162 286.5491 0037789 349.1060  10.9179 13.85375771908962
Source of the keplerian elements: AFSPC